Location: San Francisco
(37.7750°N, 122.4180°W)
Time: 15:18:15
(UTC-07:00)

Daily predictions for brighter satellites

Satellite Brightness Start Highest point End
(mag) Time Altitude Azimuth Time Altitude Azimuth Time Altitude Azimuth
Meteor 1-24 Rocket 3.8 19:09:07 10° N 19:14:41 84° W 19:20:03 10° S
Okean 3 Rocket 4.1 19:12:15 10° NNW 19:16:47 70° W 19:21:17 10° S
Cosmos 1544 4.0 19:16:16 10° SSE 19:19:29 28° E 19:22:43 10° NNE
SAR-Lupe-4 4.0 19:16:36 10° SE 19:19:56 39° ENE 19:23:18 10° N
USA 215 4.1 19:16:34 10° ENE 19:22:09 29° SE 19:27:40 10° S
ATLAS 5 CENTAUR R/B 2.7 19:17:32 10° SW 19:22:10 52° NW 19:27:12 10° NNE
ATLAS CENTAUR R/B 3.7 19:24:56 10° SW 19:29:26 75° NW 19:43:44 10° NE
Resurs 01 Rocket 2.5 19:26:38 10° SE 19:30:25 28° ENE 19:34:13 10° N
SJ-6B 3.0 19:30:02 10° SSE 19:33:56 54° ENE 19:37:56 10° N
COSMO-SKYMED 1 3.2 19:31:09 10° N 19:35:26 60° WNW 19:39:42 10° SSW
Cosmos 1484 Rocket 3.2 19:32:29 10° S 19:36:19 67° WSW 19:40:14 10° NNW
SL-8 R/B 4.2 19:31:59 10° WSW 19:36:43 61° NNW 19:41:27 10° NE
Meteor 2-12 Rocket 4.5 19:30:54 10° S 19:36:56 63° E 19:43:01 10° NNE
METEOR-M 4.4 19:33:10 10° SE 19:38:14 45° ENE 19:43:19 10° N
Cosmos 1076 Rocket 3.7 19:35:56 10° N 19:40:18 76° W 19:44:38 10° S
ALOS 3.5 19:37:03 10° ESE 19:40:30 21° ENE 19:44:01 10° NNE
Meteor 1-29 3.8 19:42:53 10° NE 19:45:58 29° E 19:49:01 10° SSE
Cosmos 2151 4.4 19:44:34 10° NNE 19:47:23 17° ENE 19:47:52 17° E
Cosmos-2242 3.1 19:45:08 10° S 19:49:30 87° W 19:53:55 10° N
ISS -2.0 19:47:06 10° WSW 19:50:09 38° NW 19:53:14 10° NE
ASTEX 1 4.1 19:46:48 10° NNE 19:51:08 31° E 19:55:25 10° SSE
Cosmos 1758 3.8 19:47:43 10° SSW 19:51:47 67° W 19:55:53 10° N
Cosmos 1766 Rocket 3.9 19:47:31 10° NNW 19:51:52 69° W 19:56:09 10° S
GP-B 4.4 19:49:22 10° NE 19:52:35 19° E 19:52:51 19° E
Nadezhda 4 Rocket 3.9 19:51:10 10° N 19:57:24 65° E 20:03:31 10° SSE
FENGYUN 3A 4.2 19:55:03 12° SE 19:59:32 35° ENE 20:04:25 10° N
GPS 2-04 Rocket1 2.5 19:57:42 10° WSW 20:01:05 60° S 20:02:34 30° ESE
Meteor 1-28 Rocket 3.9 20:00:26 10° N 20:04:05 55° WNW 20:07:42 10° SSW
CZ-2D R/B 4.2 20:08:06 28° ENE 20:08:06 28° ENE 20:11:25 10° NNE
Cosmos 1092 Rocket 4.0 20:02:24 10° N 20:08:30 57° E 20:14:31 10° SSE
Cosmos 1346 3.9 20:08:25 10° NNW 20:11:20 50° W 20:14:12 10° S
ERBS 4.5 20:10:46 10° N 20:12:44 15° NNE 20:12:44 15° NNE
Cosmos 2251 Rocket 3.9 20:08:12 10° S 20:13:01 39° ESE 20:17:51 10° NE
H-2A R/B 3.5 20:16:35 34° ENE 20:16:35 34° ENE 20:19:50 10° N
CENTAUR R/B 2.5 20:12:03 10° SSW 20:18:01 85° WNW 20:24:47 10° NNE
Cosmos 2026 Rocket 4.4 20:12:30 10° N 20:18:09 37° ENE 20:20:31 28° ESE
AVUM R/B 2.7 20:15:19 10° SSW 20:18:15 86° ESE 20:18:40 62° NNE
FREGAT/IRIS 4.2 20:16:32 10° SSW 20:19:26 37° W 20:22:19 10° NNW
Helios 1A 2.9 20:18:22 10° SSE 20:22:35 86° WSW 20:26:49 10° NNW
Cosmos 1634 Rocket 3.9 20:17:01 10° S 20:23:09 64° E 20:29:17 10° NNE
Cosmos 1842 Rocket 3.6 20:18:55 10° S 20:23:14 78° W 20:27:36 10° N
Cosmos 1655 Rocket 4.5 20:17:31 10° N 20:23:14 37° ENE 20:24:52 32° ESE
Cosmos 1500 Rocket 3.5 20:18:54 10° N 20:23:22 88° E 20:27:49 10° S
Cosmos 1943 Rocket 3.0 20:20:38 10° N 20:25:32 30° ENE 20:25:56 30° ENE
OAO 3 Rocket 4.1 20:23:49 10° W 20:28:12 38° SSW 20:29:49 29° SSE
HJ-1C 4.5 20:27:33 10° S 20:30:47 44° W 20:34:02 10° NNW
Cosmos 839 Rocket 4.1 20:25:59 10° NNW 20:33:25 68° ENE 20:36:20 34° SE
Cosmos 1733 3.6 20:31:45 10° SSW 20:35:35 63° W 20:39:25 10° N
Spot 2 Rocket 4.1 20:30:50 10° S 20:35:46 57° W 20:40:45 10° NNW
Cosmos 1943 3.5 20:31:49 10° SSW 20:37:25 66° WNW 20:43:01 10° NNE
Cosmos 2369 Rocket 2.1 20:31:55 10° NNW 20:37:37 87° ENE 20:40:36 30° SSE
Cosmos 2195 Rocket 4.4 20:34:25 10° N 20:40:44 67° E 20:44:27 26° SSE
Cosmos 1674 3.9 20:39:33 10° NNW 20:43:15 43° W 20:46:56 10° SSW
CZ-4B DEB 4.0 20:46:01 37° NNW 20:46:01 37° NNW 20:48:09 10° NNW
Cosmos 1470 4.4 20:45:11 10° SW 20:48:44 34° WNW 20:52:17 10° NNW
Helios 1B rocket 4.1 20:45:12 10° N 20:48:56 34° WNW 20:52:38 10° SW
Cosmos 2263 4.1 20:46:19 10° NNW 20:52:07 83° ENE 20:53:27 55° SSE
SL-24 R/B - RUBIN 2 4.3 20:53:18 10° NNW 20:59:57 75° ENE 21:00:46 65° ESE
USA 215 3.4 21:00:26 18° NE 21:05:24 70° NW 21:11:53 10° WSW
Resurs 01 Rocket 3.9 21:03:15 10° SSW 21:06:50 24° W 21:10:26 10° NW
Cosmos 2058 4.5 21:06:12 10° N 21:08:17 29° NNW 21:08:17 29° NNW
ERS-1 Rocket 4.4 21:16:05 27° N 21:16:05 27° N 21:18:27 10° N
ALOS 3.7 21:15:36 23° SW 21:17:42 35° W 21:21:59 10° NNW
Cosmos 1943 Rocket 3.9 22:04:14 10° NW 22:07:28 28° WNW 22:07:28 28° WNW
